BSAT-3B

导读 | 星芒AI

BSAT-3B 是由日本广播卫星系统公司(BSAT)运营的一颗通信卫星,于2008年10月由阿里安航天公司使用阿里安-5火箭发射升空。该卫星位于110°E轨道位置,主要用于提供数字电视广播和数据传输服务。BSAT-3B 搭载了多个C波段和Ku波段转发器,覆盖日本及周边地区,增强了BSAT的卫星通信能力。作为BSAT-3系列的一部分,它在提升广播质量和扩大服务范围方面发挥了重要作用。

基本信息
目录编号:
37207
目录名称:
BSAT-3B
国际标识:
2010-056B
轨道中心:
EARTH
卫星名称:
BSAT-3B
卫星全名:
--
卫星状态:
在轨 (已飞行5483 天)
发射日期:
2010-10-28 UTC
国别 :
日本 (JP)
星等 :
--
轨道信息
数据来源 国际轨道数据 AOE轨道数据
星历时间 2025-10-31T18:04:04+0800
1天前
查看轨道信息
2025-11-02T02:00:00+0800
1小时前
查看轨道信息
半长轴 42164.168km 42164.784km
偏心率 0.0004644 0.0004987
轨道倾角 0.022° 0.024°
近地点辐角 20.116° 34.739°
升交点赤经 205.851° 195.421°
平近点角 74.894° 190.998°
近地点 35766.451km 35765.621km
远地点 35805.615km 35807.677km
周期 1436.068分钟 1436.100分钟
每日圈数 1.002738 1.002716
详细信息
使用方式:
暂无
2D轨道图
3D轨道图
轨道高度分析图
轨道倾角分析图
轨道综合分析图
查看轨道综合分析图